Regional Weather Roundup
Issued by NWS Charleston, SC

Current Version | Previous Version | Text Only | Print | Product List | Glossary On
Versions: 1 2 3 4 5 6 7 8 9 10 11 12 13 14 15 16 17 18 19 20 21 22 23 24 25 26 27 28 29 30 31 32 33 34 35 36 37 38 39 40 41 42 43 44 45 46 47 48 49 50
000
ASUS42 KCHS 220625
RWRCHS

REGIONAL WEATHER ROUNDUP
NATIONAL WEATHER SERVICE CHARLESTON SC
200 AM EDT MON SEP 22 2014

NOTE: "FAIR" INDICATES FEW OR NO CLOUDS BELOW 12,000 FEET WITH NO
SIGNIFICANT WEATHER AND/OR OBSTRUCTIONS TO VISIBILITY.

NOT ALL STATIONS ARE QUALITY CONTROLLED BY THE NATIONAL
WEATHER SERVICE. USE DATA WITH CAUTION...ESPECIALLY
DEWPOINT OBSERVATIONS.

SCZ027-030-031-034>040-042>050-220700-
...SOUTH CAROLINA...

CITY           SKY/WX    TMP DP  RH WIND       PRES   REMARKS
N CHARLESTON   CLEAR     72  67  84 SW6       29.95F
6HR MIN TEMP:  72; 6HR MAX TEMP:  79;

WATERFRONT PRK NOT AVBL
FORT JOHNSON   NOT AVBL
MOUNT PLEASANT FAIR      75  68  78 SW6       29.95S
JOHNS ISLAND   CLEAR     75  73  94 CALM      29.96F
PINOPOLIS        N/A     75  66  73 SW10      29.88R
MONCKS CORNER    N/A     73  68  83 SW5       29.95S
SUMMERVILLE    NOT AVBL
BEAUFORT MCAS  CLEAR     72  65  78 E7        29.96F
6HR MIN TEMP:  71; 6HR MAX TEMP:  77;

BEAUFORT ARPT  FAIR      73  66  78 SW7       29.96F
HILTON HEAD IS CLEAR     73  66  78 S8        29.99S
GEORGETOWN     NOT AVBL
WALTERBORO     CLEAR     70  68  94 SW3       29.96S
ORANGEBURG     MOCLDY    70  64  81 SW7       29.94F
6HR MIN TEMP:  69; 6HR MAX TEMP:  76;

BARNWELL       FAIR      72  64  78 SW5       29.96S
AIKEN          MOCLDY    73  64  73 SW6       29.98S
MANNING        FAIR      75  66  73 SW6       29.93F
KINGSTREE      NOT AVBL
COLUMBIA       CLOUDY    77  62  59 SW7       29.91F
6HR MIN TEMP:  75; 6HR MAX TEMP:  80;

SUMTER         MOCLDY    74  64  71 SW12      29.91S
6HR MIN TEMP:  73; 6HR MAX TEMP:  77;

FLORENCE       MOCLDY    74  64  71 SW8       29.91S
6HR MIN TEMP:  73; 6HR MAX TEMP:  77;

MYRTLE BEACH   CLEAR     75  63  64 SW9       29.92S
N MYRTLE BEACH CLEAR     75  64  68 W7        29.91F
6HR MIN TEMP:  75; 6HR MAX TEMP:  79;


$$

GAZ063-065-086>088-099>101-113>116-118-119-134-136>141-150-220700-
...GEORGIA...

CITY           SKY/WX    TMP DP  RH WIND       PRES   REMARKS
SAVANNAH ARPT  CLEAR     71  62  73 SW3       29.98S
6HR MIN TEMP:  71; 6HR MAX TEMP:  79;

HUNTER AAF     CLEAR     71  65  80 SW6       29.97S
6HR MIN TEMP:  71; 6HR MAX TEMP:  77;

FORT STEWART   CLEAR     66  62  85 SW2       29.98S
6HR MIN TEMP:  66; 6HR MAX TEMP:  76;

STATESBORO     NOT AVBL
SYLVANIA       CLEAR     75  68  78 CALM      29.99S
CLAXTON        FAIR      66  66 100 CALM      29.99S
THOMSON        CLOUDY    75  68  77 CALM      29.99S
AUGUSTA-BUSH   PTCLDY    73  62  68 SW7       29.94S
6HR MIN TEMP:  69; 6HR MAX TEMP:  77;

AUGUSTA-DANIEL CLOUDY    74  62  66 SW5       29.96R
SWAINSBORO     FAIR      73  64  73 CALM      29.99S
VIDALIA        CLEAR     70  63  78 SW3       30.00S
ALMA           CLEAR     62  60  93 CALM      30.00S
6HR MIN TEMP:  62; 6HR MAX TEMP:  73;

WAYCROSS       NOT AVBL
JESUP          FAIR      68  64  88 CALM      30.00S
BRUNSWICK      CLEAR     70  61  73 SW5       30.00F
SAINT SIMONS   CLEAR     73  64  73 SW7       30.00S
6HR MIN TEMP:  73; 6HR MAX TEMP:  79;


$$

SCZ027-028-034-036>038-045-046-048>050-GAZ119-141-220700-
...LAKE AND SUPPLEMENTAL COASTAL OBSERVATIONS...

STATION/POSITION TIME  TEMP    WIND        PRES    WAVE   SWELL
                       AIR SEA DIR/SP/G            HT/PER HT/PER/DIR
                 (UTC) (F)     (DEG/KT/KT) (MB)    (FT/S) (FT/S/D)
UPR LAKE MARION  NOT AVBL
WINYAH BAY       0600   77     240/  8     1013.0S
LAKE MURRAY      0500   79     250/ 10/ 12 1012.5S
ACE BASIN NERRS  0600   72        CALM     1015.0S
FORT PULASKI     0600   73     230/  4/  9 1015.4F
SAPELO ISLAND    0600   74     230/  9     1016.0S

$$

ANZ835-935-AMZ111-154-330-350-352-354-374-450-454-472-220700-
...C-MAN AND BUOY OBSERVATIONS...

STATION/POSITION TIME  TEMP    WIND        PRES    WAVE   SWELL
                       AIR SEA DIR/SP/G            HT/PER HT/PER/DIR
                 (UTC) (F)     (DEG/KT/KT) (MB)    (FT/S) (FT/S/D)
FOLLY BEACH CMAN 0600   77     230/  7/  9 1014.9S
BUOY 41004       0600   81 81  240/ 16/ 19 1013.8F   4/ 4   2/ 9
BUOY 41008       0600   82 82  230/ 16/ 17 1015.3F   3/ 4   2/ 90/ 9
5E ST. MARYS GA  0600      83                N/A     2/ 9
FRYING PAN BUOY  NOT AVBL
BUOY 41025       0600   81     240/ 23/ 27 1011.1S   7/ 6   3/150/ 9
CAPE LOOKOUT NC  0600   79     230/ 11/ 14 1011.9F
BUOY 41002       0505   80 81  260/ 14/ 16 1015.8S   6/ 8   5/320/ 8
BUOY 41010       0600   81 84  220/  6/  8 1016.5F   5/10   5/ 20/10
BUOY 41012       NOT AVBL
ST AUGUSTINE FL  0600   73     220/  7/  8 1016.9F
CAPERS NEARSHORE 0500   80     240/ 16/ 19   N/A
FRIPP NEARSHORE  NOT AVBL


$$



USA.gov is the U.S. government's official web portal to all federal, state and local government web resources and services.